Weather reports worldwide

Advertisment
Leeuwarden, Netherlands (6270): temperature & dewpoint: 09.08.2020 21:00:00 - 15.08.2020 21:00:00 (CEST)Leeuwarden, Netherlands (6270): temperature 5cm: 09.08.2020 21:00:00 - 15.08.2020 21:00:00 (CEST)Leeuwarden, Netherlands (6270): wind speed & gusts: 09.08.2020 21:00:00 - 15.08.2020 21:00:00 (CEST)Leeuwarden, Netherlands (6270): wind direction: 09.08.2020 21:00:00 - 15.08.2020 21:00:00 (CEST)Leeuwarden, Netherlands (6270): reduced air pressure: 09.08.2020 21:00:00 - 15.08.2020 21:00:00 (CEST)Leeuwarden, Netherlands (6270): visibility: 09.08.2020 21:00:00 - 15.08.2020 21:00:00 (CEST)Leeuwarden, Netherlands (6270): precipitation: 09.08.2020 21:00:00 - 15.08.2020 21:00:00 (CEST)
Date & Time tt [°C] td [°C] tt 5cm [°C] ff [km/h] ff [kn] fx [km/h] fx [kn] dd ppp [hPa] vv [km] rr [mm]
15.08.2020 21:00:00 20,0 17,4 19,4 15 8 22 12 NE 1014,8 10 0,0
15.08.2020 20:00:00 21,3 18,0 21,1 16 9 22 12 NE 1014,8 10 0,0
15.08.2020 19:00:00 22,5 18,6 22,7 13 7 22 12 NNE 1014,5 10 0,0
15.08.2020 18:00:00 22,3 19,3 22,6 18 10 25 14 NE 1014,7 10 0,0
15.08.2020 17:00:00 22,7 19,6 22,9 15 8 22 12 NNE 1014,6 10 0,0
15.08.2020 16:00:00 23,8 18,8 23,5 8 4 18 10 E 1015,0 10 0,0
15.08.2020 15:00:00 24,2 19,1 24,4 9 5 18 10 E 1015,0 10 0,0
15.08.2020 14:00:00 23,7 18,7 23,6 9 5 25 14 - 1015,4 10 2,0
15.08.2020 13:00:00 23,2 17,0 25,0 16 9 29 16 ENE 1015,3 10 0,0
15.08.2020 12:00:00 24,6 18,6 26,2 13 7 22 12 ENE 1015,2 10 0,0
15.08.2020 11:00:00 23,9 18,3 26,0 13 7 18 10 ENE 1015,1 10 0,0
15.08.2020 10:00:00 22,4 19,6 23,5 11 6 18 10 - 1015,0 10 0,0
15.08.2020 09:00:00 21,6 19,9 22,2 8 4 11 6 ENE 1014,9 10 0,0
15.08.2020 08:00:00 20,2 19,1 20,0 8 4 11 6 ENE 1014,5 10 0,0
15.08.2020 07:00:00 18,6 18,2 16,9 5 3 7 4 NE 1014,0 8 0,0
15.08.2020 06:00:00 18,3 17,7 17,1 8 4 11 6 NE 1013,8 9 0,0
15.08.2020 05:00:00 18,3 17,4 17,6 4 2 7 4 NNE 1013,8 10 0,0
15.08.2020 04:00:00 19,1 17,8 18,2 4 2 11 6 - 1014,0 10 0,0
15.08.2020 03:00:00 19,5 18,1 18,9 8 4 11 6 ENE 1014,2 10 0,0
15.08.2020 02:00:00 19,3 18,1 18,8 8 4 11 6 NNE 1014,3 10 0,0
15.08.2020 01:00:00 19,2 18,0 18,7 8 4 7 4 NE 1014,5 10 0,0
15.08.2020 00:00:00 19,5 18,3 18,8 8 4 11 6 ENE 1014,5 10 0,0
14.08.2020 23:00:00 19,8 18,6 19,3 13 7 18 10 NE 1014,0 9 0,0
14.08.2020 22:00:00 20,4 18,6 20,1 11 6 18 10 NE 1013,8 10 0,0
14.08.2020 21:00:00 21,1 18,8 20,8 13 7 18 10 NE 1013,4 10 0,0
14.08.2020 20:00:00 22,2 18,9 22,1 9 5 25 14 NE 1013,1 10 0,0
14.08.2020 19:00:00 22,6 19,5 22,7 16 9 25 14 NNE 1012,7 10 0,0
14.08.2020 18:00:00 25,0 20,5 26,4 18 10 25 14 NE 1012,4 10 0,0
14.08.2020 17:00:00 25,2 20,2 26,5 13 7 18 10 NNE 1012,1 10 0,0
14.08.2020 16:00:00 26,0 19,1 27,8 4 2 18 10 NE 1012,2 10 0,0
14.08.2020 15:00:00 25,4 20,1 27,1 9 5 22 12 ENE 1012,5 10 0,0
14.08.2020 14:00:00 24,5 19,7 25,9 9 5 14 8 ENE 1012,9 10 0,0
14.08.2020 13:00:00 23,7 19,4 24,7 4 2 11 6 - 1012,9 10 0,0
14.08.2020 12:00:00 22,9 19,7 24,2 5 3 11 6 N 1013,0 10 0,0
14.08.2020 11:00:00 22,0 19,3 22,7 2 1 4 2 N 1013,1 10 0,0
14.08.2020 10:00:00 20,8 19,4 21,0 4 2 18 10 - 1012,7 10 0,0
14.08.2020 09:00:00 20,1 19,2 20,2 8 4 14 8 E 1012,9 10 0,1
14.08.2020 08:00:00 19,9 19,1 19,7 5 3 14 8 WNW 1011,9 10 0,7
14.08.2020 07:00:00 20,0 19,0 19,9 4 2 14 8 SW 1012,4 10 0,0
14.08.2020 06:00:00 21,0 18,9 20,8 5 3 22 12 S 1012,0 10 0,0
14.08.2020 05:00:00 21,4 16,9 20,4 5 3 18 10 S 1011,4 10 0,0
14.08.2020 04:00:00 21,6 16,8 20,2 9 5 14 8 E 1011,6 10 0,0
14.08.2020 03:00:00 22,2 17,2 21,4 11 6 18 10 E 1012,0 10 0,0
14.08.2020 02:00:00 22,1 18,6 21,4 13 7 18 10 ENE 1012,0 10 0,0
14.08.2020 01:00:00 22,3 18,9 21,6 15 8 22 12 ENE 1011,9 10 0,0
14.08.2020 00:00:00 23,0 18,8 22,2 13 7 22 12 ENE 1012,1 10 0,0
13.08.2020 23:00:00 23,0 18,0 21,9 16 9 25 14 ENE 1011,6 10 0,0
13.08.2020 22:00:00 22,9 17,9 21,5 13 7 18 10 ENE 1011,6 10 0,0
13.08.2020 21:00:00 24,2 18,4 23,2 15 8 25 14 ENE 1011,3 10 0,0
13.08.2020 20:00:00 25,5 18,9 24,9 18 10 29 16 ENE 1011,2 10 0,0
13.08.2020 19:00:00 26,6 19,1 26,0 22 12 32 18 NE 1011,0 10 0,0
13.08.2020 18:00:00 28,1 21,0 28,7 24 13 29 16 NE 1010,9 10 0,0
13.08.2020 17:00:00 29,7 17,4 30,8 15 8 25 14 ENE 1011,3 10 0,0
13.08.2020 16:00:00 29,8 16,9 31,4 16 9 29 16 - 1011,7 10 0,0
13.08.2020 15:00:00 29,7 18,6 31,4 16 9 29 16 E 1011,9 10 0,0
13.08.2020 14:00:00 28,7 19,0 30,4 16 9 29 16 - 1012,1 10 0,0
13.08.2020 13:00:00 28,2 18,9 30,1 16 9 25 14 - 1012,2 10 0,0
13.08.2020 12:00:00 26,8 18,5 28,7 15 8 22 12 ENE 1012,4 10 0,0
13.08.2020 11:00:00 25,6 18,4 27,8 11 6 18 10 E 1012,7 10 0,0
13.08.2020 10:00:00 24,3 17,3 25,6 9 5 18 10 ENE 1012,9 10 0,0
13.08.2020 09:00:00 23,1 16,6 23,2 11 6 22 12 ESE 1013,0 10 0,0
13.08.2020 08:00:00 21,6 15,8 20,9 11 6 14 8 - 1012,7 10 0,0
13.08.2020 07:00:00 19,6 15,0 18,0 11 6 14 8 ENE 1012,7 10 0,0
13.08.2020 06:00:00 19,4 15,1 17,8 8 4 14 8 E 1012,6 10 0,0
13.08.2020 05:00:00 20,2 15,5 18,2 8 4 14 8 E 1012,6 10 0,0
13.08.2020 04:00:00 19,3 15,8 18,1 9 5 14 8 E 1012,6 10 0,0
13.08.2020 03:00:00 20,1 15,8 18,3 11 6 14 8 - 1013,0 10 0,0
13.08.2020 02:00:00 21,5 15,9 19,9 11 6 18 10 - 1013,2 10 0,0
13.08.2020 01:00:00 23,6 15,8 21,6 13 7 18 10 E 1013,8 10 0,0
13.08.2020 00:00:00 23,4 16,6 21,9 11 6 14 8 - 1013,8 10 0,0
12.08.2020 23:00:00 24,2 17,3 22,4 9 5 14 8 E 1013,8 10 0,0
12.08.2020 22:00:00 23,5 19,6 21,3 11 6 18 10 ENE 1013,5 10 0,0
12.08.2020 21:00:00 25,3 20,4 24,0 13 7 18 10 ENE 1012,9 10 0,0
12.08.2020 20:00:00 27,7 21,4 27,1 13 7 18 10 NE 1012,9 10 0,0
12.08.2020 19:00:00 30,0 20,0 29,7 11 6 22 12 ENE 1013,2 10 0,0
12.08.2020 18:00:00 30,7 18,3 30,0 15 8 22 12 ENE 1013,4 10 0,0
12.08.2020 17:00:00 31,4 17,5 32,3 11 6 25 14 - 1013,9 10 0,0
12.08.2020 16:00:00 31,7 18,2 33,0 11 6 25 14 ESE 1014,4 10 0,0
12.08.2020 15:00:00 30,8 18,2 32,5 13 7 29 16 - 1014,7 10 0,0
12.08.2020 14:00:00 30,1 18,8 32,2 15 8 22 12 - 1015,0 10 0,0
12.08.2020 13:00:00 29,5 19,6 31,2 15 8 22 12 - 1015,4 10 0,0
12.08.2020 12:00:00 28,2 18,5 30,5 9 5 22 12 E 1015,5 10 0,0
12.08.2020 11:00:00 27,0 16,9 28,4 16 9 25 14 ESE 1015,8 10 0,0
12.08.2020 10:00:00 25,5 16,2 26,4 13 7 25 14 ESE 1015,7 10 0,0
12.08.2020 09:00:00 24,1 15,9 24,3 16 9 29 16 ESE 1015,7 10 0,0
12.08.2020 08:00:00 23,0 14,8 22,3 21 11 32 18 ESE 1015,5 10 0,0
12.08.2020 07:00:00 22,0 14,7 20,9 18 10 29 16 ESE 1015,7 10 0,0
12.08.2020 06:00:00 22,2 14,4 21,0 15 8 25 14 - 1015,6 10 0,0
12.08.2020 05:00:00 22,9 14,0 21,6 16 9 29 16 ESE 1015,4 10 0,0
12.08.2020 04:00:00 23,8 13,7 22,4 18 10 29 16 ESE 1015,7 10 0,0
12.08.2020 03:00:00 24,6 14,0 23,2 18 10 29 16 ESE 1015,8 10 0,0
12.08.2020 02:00:00 24,4 15,5 22,7 13 7 22 12 E 1015,8 10 0,0
12.08.2020 01:00:00 24,5 16,3 22,7 16 9 22 12 - 1016,1 10 0,0
12.08.2020 00:00:00 25,5 16,3 23,8 13 7 22 12 - 1016,1 10 0,0
11.08.2020 23:00:00 25,7 16,6 24,1 16 9 25 14 E 1016,0 10 0,0
11.08.2020 22:00:00 26,2 17,4 24,5 15 8 22 12 E 1015,6 10 0,0
11.08.2020 21:00:00 26,1 20,0 24,8 15 8 18 10 ENE 1015,0 10 0,0
11.08.2020 20:00:00 29,3 18,7 28,3 15 8 25 14 ENE 1014,9 10 0,0
11.08.2020 19:00:00 30,1 18,8 29,4 15 8 25 14 E 1014,8 10 0,0
11.08.2020 18:00:00 31,6 18,3 31,4 21 11 29 16 - 1015,0 10 0,0
11.08.2020 17:00:00 32,1 17,1 33,0 18 10 32 18 - 1015,3 10 0,0
11.08.2020 16:00:00 31,4 17,0 31,9 22 12 43 23 E 1015,6 10 0,0
11.08.2020 15:00:00 31,0 17,5 31,8 22 12 32 18 - 1015,8 10 0,0
11.08.2020 14:00:00 30,4 18,0 31,8 28 15 40 21 - 1016,3 10 0,0
11.08.2020 13:00:00 29,4 18,0 30,7 24 13 40 21 E 1016,6 10 0,0
11.08.2020 12:00:00 28,2 18,6 29,4 24 13 36 19 - 1016,6 10 0,0
11.08.2020 11:00:00 26,8 18,4 28,1 18 10 29 16 E 1017,0 10 0,0
11.08.2020 10:00:00 25,1 18,6 25,9 16 9 25 14 E 1017,1 10 0,0
11.08.2020 09:00:00 23,3 18,2 23,7 15 8 18 10 ENE 1017,2 5 0,0
11.08.2020 08:00:00 21,0 17,7 20,7 13 7 18 10 ENE 1017,0 6 0,0
11.08.2020 07:00:00 19,5 16,8 18,7 15 8 18 10 ENE 1016,9 10 0,0
11.08.2020 06:00:00 19,5 16,8 18,6 13 7 18 10 ENE 1016,8 9 0,0
11.08.2020 05:00:00 19,7 16,9 18,5 15 8 18 10 ENE 1016,8 10 0,0
11.08.2020 04:00:00 19,8 16,9 18,5 13 7 18 10 ENE 1016,9 10 0,0
11.08.2020 03:00:00 19,4 16,5 18,3 11 6 18 10 ENE 1017,1 10 0,0
11.08.2020 02:00:00 20,5 16,9 19,2 9 5 18 10 E 1016,9 10 0,0
11.08.2020 01:00:00 21,5 17,6 20,1 13 7 18 10 ENE 1016,9 10 0,0
11.08.2020 00:00:00 21,7 19,0 20,4 13 7 18 10 ENE 1017,0 10 0,0
10.08.2020 23:00:00 22,2 19,4 20,3 9 5 14 8 ENE 1016,8 10 0,0
10.08.2020 22:00:00 23,2 19,9 21,5 11 6 18 10 ENE 1016,3 10 0,0
10.08.2020 21:00:00 24,1 20,4 23,1 13 7 22 12 ENE 1015,6 10 0,0
10.08.2020 20:00:00 25,5 20,8 25,2 18 10 32 18 NE 1015,5 10 0,0
10.08.2020 19:00:00 26,5 21,0 26,6 22 12 36 19 ENE 1015,4 10 0,0
10.08.2020 18:00:00 27,8 21,3 28,5 22 12 36 19 NE 1015,4 10 0,0
10.08.2020 17:00:00 27,6 21,0 28,8 24 13 36 19 NE 1015,8 10 0,0
10.08.2020 16:00:00 28,8 22,8 30,3 21 11 29 16 NE 1016,0 10 0,0
10.08.2020 15:00:00 29,8 20,3 31,7 16 9 25 14 - 1016,4 10 0,0
10.08.2020 14:00:00 29,2 20,1 31,0 18 10 25 14 ENE 1016,3 10 0,0
10.08.2020 13:00:00 28,2 19,1 30,0 15 8 22 12 ENE 1016,5 10 0,0
10.08.2020 12:00:00 27,6 20,4 29,3 11 6 18 10 - 1016,7 10 0,0
10.08.2020 11:00:00 25,6 18,4 27,9 9 5 18 10 - 1016,9 10 0,0
10.08.2020 10:00:00 24,3 19,2 25,2 15 8 22 12 - 1016,7 10 0,0
10.08.2020 09:00:00 22,2 18,7 22,8 15 8 22 12 ENE 1016,7 10 0,0
10.08.2020 08:00:00 20,5 18,2 20,3 11 6 18 10 - 1017,0 10 0,0
10.08.2020 07:00:00 19,1 17,6 18,4 11 6 18 10 ENE 1016,9 7 0,0
10.08.2020 06:00:00 18,9 17,9 17,7 13 7 14 8 ENE 1016,9 9 0,0
10.08.2020 05:00:00 18,4 17,8 17,4 9 5 11 6 ENE 1017,1 6 0,0
10.08.2020 04:00:00 18,4 17,7 17,5 9 5 14 8 ENE 1017,3 9 0,0
10.08.2020 03:00:00 18,7 17,8 18,1 11 6 14 8 ENE 1017,2 9 0,0
10.08.2020 02:00:00 19,0 17,9 18,4 13 7 22 12 ENE 1017,4 10 0,0
10.08.2020 01:00:00 19,4 17,9 18,7 16 9 25 14 NE 1017,7 10 0,0
10.08.2020 00:00:00 19,1 17,6 18,4 16 9 25 14 NE 1017,8 10 0,0
09.08.2020 23:00:00 19,2 17,4 18,5 16 9 22 12 NE 1018,1 10 0,0
09.08.2020 22:00:00 19,7 17,7 19,0 16 9 25 14 NE 1018,4 10 0,0
09.08.2020 21:00:00 20,8 17,3 20,1 18 10 32 18 ENE 1017,9 10 0,0

tt = temperature
td = dewpoint
tt 5cm = temperature 5cm
ff = wind speed
fx = gusts
dd = wind direction
ppp = reduced air pressure
vv = visibility
rr = precipitation

Next stations